AAL4L EGLL-KJFK

Flight info

Callsign AAL4L
Flight time N/A
Altitude 36000
Route CPT L9 BUCGO DCT FELCA DCT OFSOX DCT BANBA DCT TOBOR/M083F360 DCT 53N020W 53N030W 5230N04000W 50N050W DCT ELSIR/N0466F380 N402C ALLEX DCT ENE PARCH4
Aircraft B77W/H-SDE1E2E3FGHIJ2J3J4J5M1RWXY/LB1D1

Departure

Time 2026-05-06 02:22
Airport London Heathrow Airport (EGLL)

Arrival

Time N/A
Airport John F. Kennedy International Airport (KJFK)
Time Latitude Longitude Altitude Speed Heading
2026-05-06 01:54 51.46980 -0.46298 91 ft 0 kts 235°
2026-05-06 02:10 51.46981 -0.46296 95 ft 2 kts 235°
2026-05-06 02:10 51.46996 -0.46261 92 ft 4 kts 235°
2026-05-06 02:10 51.47009 -0.46231 90 ft 2 kts 235°
2026-05-06 02:11 51.47020 -0.46198 91 ft 4 kts 276°
2026-05-06 02:11 51.47013 -0.46176 92 ft 0 kts 325°
2026-05-06 02:11 51.47026 -0.46190 94 ft 0 kts 325°
2026-05-06 02:16 51.47029 -0.46193 94 ft 3 kts 325°
2026-05-06 02:16 51.47080 -0.46249 95 ft 14 kts 326°
2026-05-06 02:16 51.47164 -0.46341 95 ft 15 kts 326°
2026-05-06 02:16 51.47233 -0.46457 96 ft 15 kts 284°
2026-05-06 02:17 51.47238 -0.46622 91 ft 15 kts 269°
2026-05-06 02:17 51.47236 -0.46787 91 ft 15 kts 264°
2026-05-06 02:17 51.47156 -0.46863 92 ft 15 kts 181°
2026-05-06 02:17 51.47052 -0.46859 91 ft 15 kts 179°
2026-05-06 02:18 51.46949 -0.46857 92 ft 15 kts 179°
2026-05-06 02:18 51.46845 -0.46860 91 ft 15 kts 181°
2026-05-06 02:18 51.46740 -0.46862 94 ft 15 kts 180°
2026-05-06 02:18 51.46662 -0.46945 95 ft 15 kts 258°
2026-05-06 02:19 51.46656 -0.47115 94 ft 15 kts 269°
2026-05-06 02:19 51.46656 -0.47285 94 ft 15 kts 270°
2026-05-06 02:19 51.46655 -0.47455 92 ft 15 kts 268°
2026-05-06 02:19 51.46651 -0.47639 91 ft 20 kts 268°
2026-05-06 02:20 51.46652 -0.48179 93 ft 25 kts 270°
2026-05-06 02:20 51.46652 -0.48455 93 ft 25 kts 270°
2026-05-06 02:20 51.46641 -0.48713 94 ft 18 kts 236°
2026-05-06 02:21 51.46530 -0.48775 93 ft 18 kts 164°
2026-05-06 02:21 51.46482 -0.48610 94 ft 19 kts 92°
2026-05-06 02:21 51.46483 -0.47953 95 ft 111 kts 90°
2026-05-06 02:21 51.46490 -0.46137 158 ft 207 kts 88°
2026-05-06 02:22 51.46510 -0.43623 975 ft 250 kts 86°
2026-05-06 02:22 51.46460 -0.40737 2337 ft 260 kts 97°
2026-05-06 02:22 51.45800 -0.38340 3216 ft 221 kts 132°
2026-05-06 02:22 51.44552 -0.37185 3616 ft 213 kts 166°
2026-05-06 02:23 51.43552 -0.37022 3884 ft 226 kts 182°
2026-05-06 02:23 51.41911 -0.37553 4158 ft 256 kts 204°
2026-05-06 02:23 51.40402 -0.39222 4720 ft 270 kts 233°
2026-05-06 02:23 51.39623 -0.41852 5544 ft 259 kts 267°
2026-05-06 02:24 51.39794 -0.44688 6012 ft 259 kts 285°
2026-05-06 02:24 51.40250 -0.47547 5993 ft 267 kts 286°
2026-05-06 02:24 51.40682 -0.50425 5986 ft 263 kts 285°
2026-05-06 02:24 51.41082 -0.53268 6004 ft 260 kts 284°
2026-05-06 02:25 51.41453 -0.56095 5990 ft 259 kts 283°
2026-05-06 02:25 51.41812 -0.58932 5989 ft 259 kts 283°
2026-05-06 02:25 51.42159 -0.61766 5996 ft 259 kts 283°
2026-05-06 02:25 51.42497 -0.64602 5997 ft 259 kts 283°
2026-05-06 02:26 51.42826 -0.67404 6007 ft 260 kts 282°
2026-05-06 02:26 51.43157 -0.70258 6008 ft 260 kts 282°
2026-05-06 02:26 51.43488 -0.73121 5998 ft 261 kts 282°
2026-05-06 02:26 51.43824 -0.75989 5996 ft 262 kts 283°
2026-05-06 02:27 51.44176 -0.78857 5997 ft 262 kts 283°
2026-05-06 02:27 51.44527 -0.81723 5994 ft 263 kts 283°
2026-05-06 02:27 51.44878 -0.84597 5994 ft 262 kts 283°
2026-05-06 02:27 51.45228 -0.87470 5989 ft 262 kts 283°
2026-05-06 02:28 51.45567 -0.90341 5993 ft 262 kts 282°
2026-05-06 02:28 51.45895 -0.93210 5995 ft 262 kts 282°
2026-05-06 02:28 51.46224 -0.96090 5982 ft 263 kts 282°
2026-05-06 02:28 51.46553 -0.98969 5990 ft 261 kts 281°
2026-05-06 02:29 51.46880 -1.01833 5995 ft 261 kts 282°
2026-05-06 02:29 51.47211 -1.04698 5988 ft 261 kts 281°
2026-05-06 02:29 51.47543 -1.07567 6005 ft 262 kts 281°
2026-05-06 02:29 51.47876 -1.10454 6000 ft 266 kts 281°
2026-05-06 02:30 51.48210 -1.13362 6002 ft 265 kts 282°
2026-05-06 02:30 51.48543 -1.16256 6005 ft 261 kts 282°
2026-05-06 02:30 51.48870 -1.19105 5985 ft 259 kts 281°
2026-05-06 02:30 51.49328 -1.21829 5987 ft 255 kts 300°
2026-05-06 02:31 51.50552 -1.23881 6518 ft 259 kts 319°
2026-05-06 02:31 51.51890 -1.25857 7346 ft 264 kts 316°
2026-05-06 02:31 51.53207 -1.27928 8225 ft 268 kts 316°
2026-05-06 02:31 51.54568 -1.30043 9056 ft 274 kts 317°
2026-05-06 02:32 51.55952 -1.32157 9974 ft 275 kts 317°
2026-05-06 02:32 51.57358 -1.34288 10716 ft 284 kts 317°
2026-05-06 02:32 51.58863 -1.36563 10948 ft 311 kts 317°
2026-05-06 02:32 51.60417 -1.39190 11185 ft 338 kts 309°
2026-05-06 02:33 51.61804 -1.42391 11637 ft 356 kts 301°
2026-05-06 02:33 51.62599 -1.44726 12140 ft 362 kts 298°
2026-05-06 02:34 51.66598 -1.57027 14994 ft 380 kts 298°
2026-05-06 02:34 51.67842 -1.60809 15900 ft 383 kts 297°
2026-05-06 02:34 51.69077 -1.64650 16690 ft 389 kts 294°
2026-05-06 02:34 51.70050 -1.68742 17551 ft 392 kts 286°
2026-05-06 02:35 51.70728 -1.73024 18355 ft 397 kts 280°
2026-05-06 02:35 51.71100 -1.77470 18998 ft 403 kts 275°
2026-05-06 02:35 51.71386 -1.81928 19742 ft 406 kts 276°
2026-05-06 02:35 51.71694 -1.86464 20467 ft 409 kts 276°
2026-05-06 02:36 51.72015 -1.91042 21197 ft 413 kts 276°
2026-05-06 02:36 51.72343 -1.95669 21846 ft 419 kts 276°
2026-05-06 02:36 51.72678 -2.00370 22459 ft 424 kts 276°
2026-05-06 02:36 51.73014 -2.05120 23124 ft 428 kts 276°
2026-05-06 02:37 51.73349 -2.09906 23766 ft 432 kts 276°
2026-05-06 02:37 51.73685 -2.14741 24329 ft 435 kts 276°
2026-05-06 02:37 51.74023 -2.19607 24891 ft 438 kts 276°
2026-05-06 02:37 51.74363 -2.24515 25415 ft 442 kts 276°
2026-05-06 02:38 51.74704 -2.29460 25914 ft 446 kts 276°
2026-05-06 02:38 51.75047 -2.34449 26426 ft 449 kts 276°
2026-05-06 02:38 51.75389 -2.39475 26936 ft 452 kts 276°
2026-05-06 02:38 51.75733 -2.44535 27429 ft 455 kts 276°
2026-05-06 02:39 51.76076 -2.49627 27889 ft 458 kts 276°
2026-05-06 02:39 51.76417 -2.54759 28341 ft 462 kts 276°
2026-05-06 02:39 51.76743 -2.59944 28783 ft 465 kts 276°
2026-05-06 02:39 51.77067 -2.65152 29206 ft 468 kts 276°
2026-05-06 02:40 51.77397 -2.70325 29629 ft 470 kts 276°
2026-05-06 02:40 51.77735 -2.75571 30185 ft 469 kts 276°
2026-05-06 02:40 51.78070 -2.80783 30787 ft 464 kts 276°
2026-05-06 02:40 51.78402 -2.85973 31309 ft 463 kts 276°
2026-05-06 02:41 51.78729 -2.91140 31720 ft 463 kts 276°
2026-05-06 02:41 51.79053 -2.96309 32157 ft 462 kts 276°
2026-05-06 02:41 51.79373 -3.01464 32601 ft 461 kts 276°
2026-05-06 02:41 51.79691 -3.06615 33023 ft 460 kts 276°
2026-05-06 02:42 51.80005 -3.11758 33435 ft 460 kts 276°
2026-05-06 02:42 51.80318 -3.16903 33843 ft 459 kts 276°
2026-05-06 02:42 51.80629 -3.22060 33986 ft 464 kts 275°
2026-05-06 02:43 51.81245 -3.32375 34013 ft 462 kts 275°
2026-05-06 02:43 51.81849 -3.42638 34013 ft 456 kts 275°
2026-05-06 02:44 51.82447 -3.52825 33999 ft 454 kts 276°
2026-05-06 02:44 51.83601 -3.62840 34007 ft 452 kts 282°
2026-05-06 02:45 51.84930 -3.72803 34015 ft 453 kts 282°
2026-05-06 02:45 51.86236 -3.82793 34013 ft 455 kts 282°
2026-05-06 02:46 51.87522 -3.92831 34020 ft 456 kts 281°
2026-05-06 02:46 51.88788 -4.02826 34015 ft 456 kts 281°
2026-05-06 02:47 51.90052 -4.12883 34009 ft 456 kts 281°
2026-05-06 02:47 51.91309 -4.22949 34012 ft 455 kts 281°
2026-05-06 02:48 51.92556 -4.33002 34015 ft 455 kts 281°
2026-05-06 02:48 51.93793 -4.43052 34007 ft 455 kts 281°
2026-05-06 02:49 51.95019 -4.53093 34015 ft 454 kts 281°
2026-05-06 02:49 51.96237 -4.63139 34020 ft 453 kts 281°
2026-05-06 02:50 51.97444 -4.73167 34019 ft 453 kts 281°
2026-05-06 02:50 51.98641 -4.83193 34019 ft 452 kts 281°
2026-05-06 02:51 51.99821 -4.93156 34018 ft 452 kts 280°
2026-05-06 02:51 52.01001 -5.03181 34020 ft 452 kts 280°
2026-05-06 02:52 52.02166 -5.13203 34022 ft 451 kts 279°
2026-05-06 02:52 52.02590 -5.23356 34026 ft 451 kts 269°
2026-05-06 02:53 52.01991 -5.33425 34030 ft 451 kts 263°
2026-05-06 02:53 52.01242 -5.43540 34023 ft 451 kts 263°
2026-05-06 02:54 52.00507 -5.53667 34020 ft 452 kts 264°
2026-05-06 02:54 51.99780 -5.63800 34022 ft 452 kts 264°
2026-05-06 02:55 51.99048 -5.73933 34025 ft 452 kts 263°
2026-05-06 02:55 51.98305 -5.84077 34031 ft 452 kts 263°
2026-05-06 02:56 51.97553 -5.94207 34036 ft 452 kts 263°
2026-05-06 02:56 51.96800 -6.04253 34026 ft 451 kts 263°
2026-05-06 02:57 51.96036 -6.14335 34029 ft 450 kts 263°
2026-05-06 02:57 51.95617 -6.24445 34022 ft 449 kts 271°
2026-05-06 02:58 51.96282 -6.34497 34039 ft 448 kts 279°
2026-05-06 02:58 51.97305 -6.44475 34034 ft 448 kts 279°
2026-05-06 02:59 51.98314 -6.54459 34032 ft 448 kts 278°
2026-05-06 02:59 51.99299 -6.64460 34039 ft 448 kts 278°
2026-05-06 03:00 52.00259 -6.74381 34047 ft 448 kts 278°
2026-05-06 03:00 52.01215 -6.84387 34040 ft 448 kts 278°
2026-05-06 03:01 52.02162 -6.94377 34045 ft 448 kts 278°
2026-05-06 03:01 52.03101 -7.04371 34038 ft 448 kts 278°
2026-05-06 03:02 52.04031 -7.14365 34036 ft 447 kts 278°
2026-05-06 03:02 52.04951 -7.24348 34036 ft 447 kts 278°
2026-05-06 03:03 52.05863 -7.34343 34055 ft 447 kts 278°
2026-05-06 03:03 52.06766 -7.44330 34038 ft 446 kts 277°
2026-05-06 03:04 52.07658 -7.54293 34039 ft 445 kts 277°
2026-05-06 03:04 52.08540 -7.64243 34041 ft 444 kts 277°
2026-05-06 03:05 52.09412 -7.74175 34040 ft 443 kts 277°
2026-05-06 03:05 52.10275 -7.84111 34036 ft 443 kts 277°
2026-05-06 03:06 52.11129 -7.94043 34048 ft 443 kts 277°
2026-05-06 03:06 52.11976 -8.03982 34052 ft 443 kts 277°
2026-05-06 03:07 52.12809 -8.13869 34041 ft 444 kts 277°
2026-05-06 03:07 52.13638 -8.23818 34051 ft 444 kts 277°
2026-05-06 03:08 52.14461 -8.33791 34050 ft 444 kts 277°
2026-05-06 03:08 52.15278 -8.43783 34041 ft 445 kts 277°
2026-05-06 03:09 52.15949 -8.52091 34036 ft 445 kts 277°
2026-05-06 03:09 52.16748 -8.62073 34053 ft 444 kts 277°
2026-05-06 03:10 52.17666 -8.73679 34058 ft 444 kts 276°
2026-05-06 03:10 52.18448 -8.83674 34052 ft 444 kts 276°
2026-05-06 03:11 52.19095 -8.92042 34079 ft 444 kts 277°
2026-05-06 03:11 52.19855 -9.01975 34064 ft 444 kts 276°
2026-05-06 03:12 52.20612 -9.11963 34054 ft 444 kts 276°
2026-05-06 03:12 52.21358 -9.21943 34065 ft 443 kts 276°
2026-05-06 03:13 52.22096 -9.31917 34058 ft 443 kts 276°
2026-05-06 03:13 52.22827 -9.41910 34050 ft 443 kts 276°
2026-05-06 03:14 52.23548 -9.51895 34057 ft 443 kts 276°
2026-05-06 03:14 52.24262 -9.61896 34060 ft 444 kts 276°
2026-05-06 03:15 52.24962 -9.71828 34064 ft 444 kts 276°
2026-05-06 03:15 52.25659 -9.81843 34071 ft 444 kts 276°
2026-05-06 03:16 52.26349 -9.91869 34066 ft 444 kts 276°
2026-05-06 03:16 52.27029 -10.01899 34067 ft 444 kts 276°
2026-05-06 03:17 52.27701 -10.11926 34065 ft 444 kts 276°
2026-05-06 03:17 52.28366 -10.21970 34072 ft 444 kts 276°
2026-05-06 03:18 52.29022 -10.32008 34054 ft 445 kts 276°
2026-05-06 03:18 52.29668 -10.42051 34057 ft 444 kts 276°
2026-05-06 03:19 52.30306 -10.52087 34082 ft 444 kts 276°
2026-05-06 03:19 52.30931 -10.62058 34060 ft 443 kts 276°
2026-05-06 03:20 52.31856 -10.77068 34063 ft 441 kts 276°
2026-05-06 03:20 52.32461 -10.87056 34063 ft 441 kts 275°
2026-05-06 03:21 52.33055 -10.97015 34060 ft 441 kts 275°
2026-05-06 03:21 52.33643 -11.07002 34073 ft 441 kts 275°
2026-05-06 03:22 52.34222 -11.16986 34080 ft 442 kts 275°
2026-05-06 03:22 52.34794 -11.27009 34071 ft 443 kts 275°
2026-05-06 03:23 52.35358 -11.37043 34077 ft 443 kts 275°
2026-05-06 03:23 52.35912 -11.47028 34077 ft 444 kts 275°
2026-05-06 03:24 52.36460 -11.57086 34083 ft 444 kts 275°
2026-05-06 03:24 52.37000 -11.67156 34083 ft 444 kts 275°
2026-05-06 03:25 52.37532 -11.77232 34080 ft 444 kts 275°
2026-05-06 03:25 52.38056 -11.87302 34096 ft 444 kts 275°
2026-05-06 03:26 52.38571 -11.97390 34090 ft 444 kts 275°
2026-05-06 03:26 52.39077 -12.07477 34108 ft 444 kts 274°
2026-05-06 03:27 52.39575 -12.17565 34094 ft 445 kts 274°
2026-05-06 03:27 52.40065 -12.27668 34086 ft 445 kts 274°
2026-05-06 03:28 52.40544 -12.37713 34083 ft 445 kts 274°
2026-05-06 03:28 52.41016 -12.47823 34098 ft 445 kts 274°
2026-05-06 03:29 52.41481 -12.57947 34088 ft 445 kts 274°
2026-05-06 03:29 52.41937 -12.68061 34094 ft 446 kts 274°
2026-05-06 03:30 52.42385 -12.78196 34102 ft 446 kts 274°
2026-05-06 03:30 52.42822 -12.88287 34111 ft 446 kts 274°
2026-05-06 03:31 52.43253 -12.98438 34104 ft 447 kts 274°
2026-05-06 03:31 52.43675 -13.08603 34091 ft 447 kts 274°
2026-05-06 03:32 52.44091 -13.18797 34109 ft 448 kts 274°
2026-05-06 03:32 52.44498 -13.29021 34100 ft 450 kts 274°
2026-05-06 03:33 52.44897 -13.39254 34100 ft 450 kts 274°
2026-05-06 03:33 52.45286 -13.49445 34105 ft 451 kts 274°
2026-05-06 03:34 52.45670 -13.59771 34101 ft 451 kts 274°
2026-05-06 03:34 52.46042 -13.70002 34115 ft 453 kts 274°
2026-05-06 03:35 52.46409 -13.80336 34113 ft 455 kts 274°
2026-05-06 03:35 52.46769 -13.90718 34117 ft 457 kts 274°
2026-05-06 03:36 52.47120 -14.01131 34114 ft 457 kts 274°
2026-05-06 03:36 52.47463 -14.11558 34099 ft 458 kts 274°
2026-05-06 03:37 52.47797 -14.22012 34116 ft 459 kts 274°
2026-05-06 03:37 52.48123 -14.32494 34118 ft 460 kts 274°
2026-05-06 03:38 52.48438 -14.42931 34117 ft 461 kts 274°
2026-05-06 03:38 52.48746 -14.53443 34112 ft 461 kts 274°
2026-05-06 03:39 52.49045 -14.63956 34102 ft 461 kts 274°
2026-05-06 03:39 52.49335 -14.74475 34118 ft 462 kts 274°
2026-05-06 03:40 52.49617 -14.85028 34121 ft 463 kts 274°
2026-05-06 03:40 52.49891 -14.95599 34121 ft 464 kts 274°
2026-05-06 03:41 52.50653 -15.06086 34116 ft 462 kts 283°
2026-05-06 03:41 52.51948 -15.16437 34099 ft 463 kts 283°
2026-05-06 03:42 52.53233 -15.26807 34123 ft 464 kts 283°
2026-05-06 03:42 52.54483 -15.37167 34122 ft 465 kts 283°
2026-05-06 03:43 52.55723 -15.47618 34120 ft 466 kts 283°
2026-05-06 03:43 52.56953 -15.58088 34119 ft 467 kts 283°
2026-05-06 03:44 52.58174 -15.68566 34121 ft 466 kts 282°
2026-05-06 03:44 52.59385 -15.79043 34122 ft 466 kts 282°
2026-05-06 03:45 52.60588 -15.89524 34121 ft 466 kts 282°
2026-05-06 03:45 52.61779 -15.99992 34121 ft 465 kts 282°
2026-05-06 03:46 52.62956 -16.10426 34124 ft 465 kts 282°
2026-05-06 03:46 52.64127 -16.20899 34118 ft 465 kts 283°
2026-05-06 03:47 52.65292 -16.31388 34121 ft 466 kts 284°
2026-05-06 03:47 52.66450 -16.41910 34133 ft 468 kts 283°
2026-05-06 03:48 52.67604 -16.52482 34131 ft 469 kts 283°
2026-05-06 03:48 52.68749 -16.63081 34131 ft 470 kts 283°
2026-05-06 03:49 52.69888 -16.73708 34128 ft 471 kts 283°
2026-05-06 03:49 52.71019 -16.84349 34118 ft 471 kts 284°
2026-05-06 03:50 52.72132 -16.94923 34130 ft 471 kts 284°
2026-05-06 03:50 52.73243 -17.05583 34128 ft 471 kts 284°
2026-05-06 03:51 52.74347 -17.16255 34134 ft 471 kts 284°
2026-05-06 03:51 52.75438 -17.26918 34129 ft 471 kts 284°
2026-05-06 03:52 52.76519 -17.37565 34109 ft 470 kts 284°
2026-05-06 03:52 52.77587 -17.48191 34122 ft 468 kts 284°
2026-05-06 03:53 52.78644 -17.58805 34130 ft 468 kts 284°
2026-05-06 03:53 52.79691 -17.69408 34144 ft 467 kts 284°
2026-05-06 03:54 52.80726 -17.80003 34139 ft 467 kts 284°
2026-05-06 03:54 52.81754 -17.90617 34127 ft 467 kts 284°
2026-05-06 03:55 52.82763 -18.01153 34129 ft 467 kts 284°
2026-05-06 03:55 52.83770 -18.11753 34139 ft 466 kts 284°
2026-05-06 03:56 52.84765 -18.22342 34136 ft 465 kts 284°
2026-05-06 03:56 52.85748 -18.32916 34145 ft 464 kts 284°
2026-05-06 03:57 52.86720 -18.43466 34138 ft 463 kts 284°
2026-05-06 03:57 52.87675 -18.53929 34142 ft 462 kts 284°
2026-05-06 03:58 52.88630 -18.64511 34141 ft 461 kts 284°
2026-05-06 03:58 52.89563 -18.74945 34144 ft 461 kts 284°
2026-05-06 03:59 52.90493 -18.85458 34145 ft 461 kts 284°
2026-05-06 03:59 52.91415 -18.95989 34147 ft 462 kts 283°
2026-05-06 04:00 52.92180 -19.04810 34145 ft 462 kts 283°
2026-05-06 04:00 52.93078 -19.15279 34142 ft 462 kts 283°
2026-05-06 04:01 52.93974 -19.25829 34145 ft 462 kts 283°
2026-05-06 04:01 52.94861 -19.36383 34147 ft 462 kts 283°
2026-05-06 04:02 52.95739 -19.46959 34151 ft 462 kts 283°
2026-05-06 04:02 52.96607 -19.57525 34148 ft 462 kts 282°
2026-05-06 04:03 52.97466 -19.68089 34143 ft 462 kts 282°
2026-05-06 04:03 52.98315 -19.78664 34152 ft 462 kts 282°
2026-05-06 04:04 52.99150 -19.89165 34150 ft 462 kts 282°
2026-05-06 04:04 52.99976 -19.99736 34150 ft 462 kts 281°
2026-05-06 04:05 53.00492 -20.10415 34150 ft 464 kts 278°
2026-05-06 04:05 53.00897 -20.21125 34123 ft 464 kts 278°
2026-05-06 04:06 53.01298 -20.31818 34149 ft 464 kts 278°
2026-05-06 04:06 53.01706 -20.42511 34153 ft 463 kts 278°
2026-05-06 04:07 53.02111 -20.53187 34155 ft 463 kts 278°
2026-05-06 04:07 53.02508 -20.63852 34154 ft 463 kts 277°
2026-05-06 04:08 53.02895 -20.74517 34148 ft 462 kts 277°
2026-05-06 04:08 53.03271 -20.85172 34142 ft 462 kts 277°
2026-05-06 04:09 53.03636 -20.95761 34156 ft 462 kts 277°
2026-05-06 04:09 53.03993 -21.06427 34154 ft 462 kts 277°
2026-05-06 04:10 53.04341 -21.17096 34156 ft 462 kts 277°
2026-05-06 04:10 53.04679 -21.27761 34144 ft 462 kts 277°
2026-05-06 04:11 53.05008 -21.38451 34144 ft 462 kts 277°
2026-05-06 04:11 53.05328 -21.49129 34149 ft 462 kts 276°
2026-05-06 04:12 53.05635 -21.59728 34160 ft 462 kts 276°
2026-05-06 04:12 53.05935 -21.70409 34158 ft 462 kts 276°
2026-05-06 04:13 53.06225 -21.81077 34157 ft 462 kts 276°
2026-05-06 04:13 53.06507 -21.91745 34136 ft 461 kts 276°
2026-05-06 04:14 53.06778 -22.02422 34156 ft 461 kts 276°
2026-05-06 04:14 53.07039 -22.13089 34156 ft 462 kts 276°
2026-05-06 04:15 53.07291 -22.23768 34164 ft 462 kts 275°
2026-05-06 04:15 53.07533 -22.34392 34165 ft 463 kts 275°
2026-05-06 04:16 53.07767 -22.45112 34143 ft 463 kts 275°
2026-05-06 04:16 53.07991 -22.55814 34155 ft 463 kts 275°
2026-05-06 04:17 53.08205 -22.66524 34161 ft 463 kts 275°
2026-05-06 04:17 53.08410 -22.77254 34160 ft 464 kts 275°
2026-05-06 04:18 53.08606 -22.87980 34159 ft 464 kts 274°
2026-05-06 04:18 53.08792 -22.98717 34144 ft 464 kts 274°
2026-05-06 04:19 53.08967 -23.09375 34155 ft 463 kts 274°
2026-05-06 04:19 53.09133 -23.20091 34162 ft 463 kts 274°
2026-05-06 04:20 53.09290 -23.30809 34163 ft 463 kts 274°
2026-05-06 04:20 53.09438 -23.41534 34163 ft 463 kts 274°
2026-05-06 04:21 53.09575 -23.52261 34163 ft 463 kts 274°
2026-05-06 04:21 53.09704 -23.62980 34157 ft 463 kts 273°
2026-05-06 04:22 53.09822 -23.73708 34164 ft 464 kts 273°
2026-05-06 04:23 53.09981 -23.89750 34170 ft 464 kts 273°
2026-05-06 04:23 53.10075 -24.00505 34168 ft 465 kts 272°
2026-05-06 04:24 53.10160 -24.11260 34150 ft 465 kts 272°
2026-05-06 04:24 53.10236 -24.22025 34165 ft 465 kts 272°
2026-05-06 04:25 53.10301 -24.32793 34170 ft 465 kts 272°
2026-05-06 04:25 53.10356 -24.43568 34171 ft 465 kts 272°
2026-05-06 04:26 53.10403 -24.54341 34166 ft 466 kts 272°
2026-05-06 04:26 53.10439 -24.65119 34173 ft 466 kts 272°
2026-05-06 04:27 53.10466 -24.75823 34166 ft 466 kts 271°
2026-05-06 04:27 53.10483 -24.86590 34172 ft 466 kts 271°
2026-05-06 04:28 53.10490 -24.97378 34177 ft 466 kts 271°
2026-05-06 04:28 53.10487 -25.08166 34177 ft 466 kts 271°
2026-05-06 04:29 53.10475 -25.18943 34173 ft 466 kts 271°
2026-05-06 04:29 53.10453 -25.29732 34171 ft 466 kts 270°
2026-05-06 04:30 53.10421 -25.40507 34177 ft 466 kts 270°
2026-05-06 04:30 53.10380 -25.51282 34170 ft 465 kts 270°
2026-05-06 04:31 53.10328 -25.62052 34168 ft 465 kts 270°
2026-05-06 04:31 53.10268 -25.72814 34176 ft 465 kts 270°
2026-05-06 04:32 53.10198 -25.83579 34170 ft 465 kts 270°
2026-05-06 04:32 53.10117 -25.94343 34177 ft 465 kts 269°
2026-05-06 04:33 53.10027 -26.05116 34175 ft 465 kts 269°
2026-05-06 04:33 53.09927 -26.15881 34177 ft 466 kts 269°
2026-05-06 04:34 53.09817 -26.26673 34174 ft 466 kts 269°
2026-05-06 04:34 53.09698 -26.37453 34194 ft 466 kts 268°
2026-05-06 04:35 53.09571 -26.48181 34172 ft 467 kts 268°
2026-05-06 04:35 53.09431 -26.58983 34171 ft 467 kts 268°
2026-05-06 04:36 53.09282 -26.69791 34172 ft 467 kts 268°
2026-05-06 04:36 53.09123 -26.80609 34178 ft 468 kts 268°
2026-05-06 04:37 53.08954 -26.91429 34180 ft 468 kts 268°
2026-05-06 04:37 53.08776 -27.02239 34165 ft 468 kts 267°
2026-05-06 04:38 53.08587 -27.13069 34164 ft 468 kts 267°
2026-05-06 04:38 53.08389 -27.23872 34162 ft 467 kts 267°
2026-05-06 04:39 53.08182 -27.34684 34164 ft 467 kts 267°
2026-05-06 04:39 53.07963 -27.45534 34342 ft 473 kts 267°
2026-05-06 04:39 53.07849 -27.50993 34706 ft 472 kts 266°
2026-05-06 04:40 53.07735 -27.56368 35112 ft 470 kts 266°
2026-05-06 04:40 53.07616 -27.61858 35488 ft 469 kts 266°
2026-05-06 04:40 53.07496 -27.67269 35818 ft 468 kts 266°
2026-05-06 04:40 53.07375 -27.72606 36088 ft 469 kts 266°
2026-05-06 04:41 53.07249 -27.78055 36126 ft 472 kts 266°
2026-05-06 04:41 53.06990 -27.88929 36159 ft 468 kts 266°
2026-05-06 04:42 53.06724 -27.99717 36143 ft 465 kts 266°
2026-05-06 04:42 53.06450 -28.10443 36152 ft 464 kts 265°
2026-05-06 04:43 53.06165 -28.21171 36156 ft 464 kts 265°
2026-05-06 04:43 53.05871 -28.31890 36143 ft 465 kts 265°
2026-05-06 04:44 53.05567 -28.42628 36160 ft 466 kts 265°
2026-05-06 04:44 53.05252 -28.53411 36138 ft 468 kts 265°
2026-05-06 04:45 53.04927 -28.64222 36148 ft 469 kts 265°
2026-05-06 04:45 53.04591 -28.75050 36143 ft 469 kts 265°
2026-05-06 04:46 53.04303 -28.84059 36139 ft 470 kts 265°
2026-05-06 04:46 53.03948 -28.94913 36136 ft 470 kts 264°
2026-05-06 04:47 53.03524 -29.07525 36132 ft 470 kts 264°
2026-05-06 04:47 53.03148 -29.18362 36144 ft 469 kts 264°
2026-05-06 04:48 53.02828 -29.27359 36125 ft 469 kts 264°
2026-05-06 04:48 53.02436 -29.38145 36125 ft 467 kts 264°
2026-05-06 04:49 53.02036 -29.48897 36129 ft 466 kts 264°
2026-05-06 04:49 53.01626 -29.59625 36121 ft 465 kts 264°
2026-05-06 04:50 53.01208 -29.70336 36124 ft 464 kts 264°
2026-05-06 04:50 53.00781 -29.81033 36124 ft 464 kts 264°
2026-05-06 04:51 53.00349 -29.91639 36119 ft 463 kts 264°
2026-05-06 04:51 52.99950 -30.02309 36106 ft 464 kts 266°
2026-05-06 04:52 52.99835 -30.13018 36114 ft 464 kts 267°
2026-05-06 04:52 52.99768 -30.23734 36111 ft 464 kts 267°
2026-05-06 04:53 52.99680 -30.34465 36119 ft 465 kts 266°
2026-05-06 04:53 52.99568 -30.45200 36107 ft 465 kts 266°
2026-05-06 04:54 52.99440 -30.55946 36106 ft 466 kts 266°
2026-05-06 04:54 52.99301 -30.66717 36104 ft 466 kts 266°
2026-05-06 04:55 52.99153 -30.77481 36099 ft 466 kts 266°
2026-05-06 04:55 52.98998 -30.88154 36111 ft 466 kts 266°
2026-05-06 04:56 52.98832 -30.98899 36113 ft 466 kts 266°
2026-05-06 04:56 52.98655 -31.09653 36103 ft 466 kts 265°
2026-05-06 04:57 52.98469 -31.20408 36099 ft 465 kts 265°
2026-05-06 04:57 52.98274 -31.31140 36101 ft 465 kts 265°
2026-05-06 04:58 52.98071 -31.41802 36105 ft 465 kts 265°
2026-05-06 04:58 52.97856 -31.52517 36104 ft 465 kts 265°
2026-05-06 04:59 52.97632 -31.63235 36099 ft 464 kts 265°
2026-05-06 04:59 52.97399 -31.73940 36101 ft 464 kts 265°
2026-05-06 05:00 52.97157 -31.84630 36103 ft 463 kts 265°
2026-05-06 05:00 52.96904 -31.95318 36111 ft 463 kts 265°
2026-05-06 05:01 52.96642 -32.05993 36123 ft 464 kts 265°
2026-05-06 05:01 52.96370 -32.16699 36117 ft 465 kts 265°
2026-05-06 05:02 52.96090 -32.27351 36109 ft 466 kts 265°
2026-05-06 05:02 52.95798 -32.38089 36110 ft 466 kts 265°
2026-05-06 05:03 52.95496 -32.48843 36117 ft 467 kts 265°
2026-05-06 05:03 52.95185 -32.59593 36117 ft 467 kts 265°
2026-05-06 05:04 52.94863 -32.70349 36114 ft 467 kts 265°
2026-05-06 05:04 52.94532 -32.81096 36125 ft 467 kts 265°
2026-05-06 05:05 52.94191 -32.91843 36123 ft 467 kts 265°
2026-05-06 05:05 52.93841 -33.02576 36136 ft 467 kts 265°